Regional Weather Roundup
Issued by NWS Midland/Odessa, TX

Skip options and go directly to product.
Home | Oldest Version | Previous Version | Current Version | All | Text Only | Save Text | Print | Product List | Glossary On

Skip product version selection by date and time.   
191
ASUS44 KMAF 181910
RWRMAF
MIDLAND AREA WEATHER ROUNDUP
NATIONAL WEATHER SERVICE MIDLAND TX
100 PM CST THU DEC 18 2014

...IN SOUTHWEST TEXAS AND SOUTHEAST NEW MEXICO...

CITY           SKY/WX    TMP DP  RH WIND       PRES   REMARKS
ALPINE         MOSUNNY   60  26  27 S12       30.17F
ANDREWS        FAIR      60  32  35 CALM      30.10F
ARTESIA        MOSUNNY   55  32  41 VRB7      30.09F
BIG SPRING     MOSUNNY   64  32  31 W5        30.12F
CARLSBAD       MOSUNNY   60  35  39 VRB5      30.07F
DRYDEN           N/A     61  44  53 S3        30.08F
FORT STOCKTON  SUNNY     64  30  27 NW8       30.09F
GUAD PASS      NOT AVBL
HOBBS          SUNNY     57  28  33 CALM      30.10F
MARFA          MOSUNNY   57  27  30 S10       30.15F
MIDLAND AIRPK  SUNNY     62  34  35 W5        30.10F
MIDLAND INTL   SUNNY     62  35  36 NW6       30.09F
ODESSA         SUNNY     60  33  36 CALM      30.10F
PECOS          SUNNY     64  34  32 W13       30.09F
PRESIDIO       FAIR      58  32  36 SW5       30.11F
SEMINOLE       SUNNY     59  28  31 W7        30.10F
SNYDER         SUNNY     58  33  39 N8        30.10F
WINK           SUNNY     62  32  32 CALM      30.07F
$$
...OTHER STATIONS IN TEXAS...

CITY           SKY/WX    TMP DP  RH WIND       PRES   REMARKS
ABILENE        MOSUNNY   64  37  36 VRB7      30.09F
AMARILLO       CLOUDY    35  29  78 NW7       30.11F HAZE    WCI  29
AUSTIN         CLOUDY    59  55  87 N7        30.08F FOG
BROWNSVILLE    CLOUDY    79  67  66 S16       30.00F
CORPUS CHRISTI PTSUNNY   78  66  66 S14       30.01F
DALLAS FTW     CLOUDY    48  45  89 N7        30.13F
DEL RIO        PTSUNNY   63  54  72 NW7       30.07F
EL PASO        CLOUDY    51  36  56 SE6       30.11F
HOUSTON INT    CLOUDY    64  60  87 S5        30.07F FOG
LUBBOCK        PTSUNNY   53  31  42 NW9G17    30.08F
SAN ANGELO     MOSUNNY   63  39  41 CALM      30.09F
SAN ANTONIO    CLOUDY    65  59  81 VRB5      30.07F
WACO           CLOUDY    52  49  89 N6        30.12F FOG
WICHITA FALLS  NOT AVBL
$$
...OTHER LOCATIONS IN NEW MEXICO...

CITY           SKY/WX    TMP DP  RH WIND       PRES   REMARKS
ALAMAGORDO     PTSUNNY   54  32  43 SW7       30.11F
ALBUQUERQUE    PTSUNNY   40  30  67 CALM      30.13F
CANNON AFB     NOT AVBL
CLOVIS         SUNNY     54  25  32 W15       30.05F
HOLLOMAN AFB   PTSUNNY   53  34  48 VRB7      30.09F
ROSWELL        MOSUNNY   53  31  42 CALM      30.08F
RUIDOSO        PTSUNNY   41  23  48 CALM      30.11F
SANTA FE       PTSUNNY   38  27  64 N5        30.10F WCI  34
TRUTH OR CONSE PTSUNNY   49  28  44 S8        30.09F
TUCUMCARI      MOSUNNY   41  32  70 VRB3      30.07F
$$

USA.gov is the U.S. government's official web portal to all federal, state and local government web resources and services.